Sacramento / Mc Clellan, CA

9:49 PM PDT on October 20, 2017 (GMT -0700)
McClellan

Weather History for KMCC - March, 2013

Change the Weather History Date:

Tuesday, March 19, 2013

  Actual Average (KMHR) Record (KMHR)
Temperature  
Mean Temperature 57 °F -  
Max Temperature 68 °F 66 °F 80 °F (2015)
Min Temperature 46 °F 41 °F 32 °F (2012)
Degree Days  
Heating Degree Days 8    
Growing Degree Days 7 (Base 50)    
Moisture  
Dew Point 44 °F    
Average Humidity 62    
Maximum Humidity 94    
Minimum Humidity 37    
Precipitation  
Precipitation 0.00 in - - ()
Sea Level Pressure  
Sea Level Pressure 30.10 in    
Wind  
Wind Speed 6 mph (SSE)    
Max Wind Speed 17 mph    
Max Gust Speed 22 mph    
Visibility 9 miles    
Events Rain    
Averages and records for this station are not official NWS values.
T = Trace of Precipitation, MM = Missing Value Source: NWS Daily Summary

Daily Weather History Graph

Daily Weather History Graph

Search for Another Location

Airport or City:

Trip Planner

Search our weather history database for the weather conditions in past years. The results will help you decide how hot, cold, wet, or windy it might be!

Date:

Astronomy

Mar. 19, 2013 Rise Set
Actual Time 7:10 AM PDT 7:16 PM PDT
Civil Twilight 6:43 AM PDT 7:43 PM PDT
Nautical Twilight 6:12 AM PDT 8:14 PM PDT
Astronomical Twilight 5:41 AM PDT 8:45 PM PDT
Moon 12:08 PM PDT (3/19) 2:04 AM PDT (3/19)
Length of Visible Light 12h 59m
Length of Day
12h 06m
Waxing Crescent, 51% of the Moon is Illuminated
Mar 19
Waxing Crescent
Mar 27
Full
Apr 2
Last Quarter
Apr 10
New
Apr 18
First Quarter

Hourly Weather History & Observations

Time (PDT) Temp. Windchill Dew Point Humidity Pressure Visibility Wind Dir Wind Speed Gust Speed Precip Events Conditions
12:05 AM 57.2 °F - 44.6 °F 63% 30.09 in 10.0 mi SSE 6.9 mph - N/A   Partly Cloudy
12:25 AM 55.4 °F - 44.6 °F 67% 30.09 in 10.0 mi SE 6.9 mph - N/A   Partly Cloudy
12:45 AM 55.4 °F - 44.6 °F 67% 30.08 in 10.0 mi SE 6.9 mph - N/A   Clear
1:05 AM 57.2 °F - 42.8 °F 59% 30.08 in 10.0 mi ESE 5.8 mph - N/A   Partly Cloudy
1:25 AM 55.4 °F - 42.8 °F 63% 30.09 in 10.0 mi ESE 5.8 mph - N/A   Scattered Clouds
1:45 AM 55.4 °F - 42.8 °F 63% 30.08 in 10.0 mi SE 6.9 mph - N/A   Scattered Clouds
2:05 AM 55.4 °F - 42.8 °F 63% 30.08 in 10.0 mi SE 8.1 mph - N/A   Mostly Cloudy
2:25 AM 53.6 °F - 42.8 °F 67% 30.08 in 10.0 mi SE 8.1 mph - N/A   Partly Cloudy
2:45 AM 53.6 °F - 42.8 °F 67% 30.08 in 10.0 mi SSE 5.8 mph - N/A   Clear
3:05 AM 53.6 °F - 42.8 °F 67% 30.08 in 10.0 mi SSE 4.6 mph - N/A   Clear
3:25 AM 50.0 °F - 41.0 °F 71% 30.07 in 10.0 mi SSE 3.5 mph - N/A   Clear
3:45 AM 51.8 °F - 41.0 °F 67% 30.07 in 10.0 mi Calm Calm - N/A   Clear
4:05 AM 51.8 °F - 41.0 °F 67% 30.07 in 10.0 mi South 3.5 mph - N/A   Clear
4:25 AM 50.0 °F - 41.0 °F 71% 30.07 in 10.0 mi SSE 5.8 mph - N/A   Clear
4:45 AM 50.0 °F - 41.0 °F 71% 30.07 in 10.0 mi SE 4.6 mph - N/A   Clear
5:05 AM 50.0 °F - 41.0 °F 71% 30.06 in 10.0 mi SE 5.8 mph - N/A   Clear
5:25 AM 50.0 °F - 42.8 °F 76% 30.06 in 10.0 mi ESE 8.1 mph - N/A   Clear
5:45 AM 48.2 °F - 42.8 °F 82% 30.06 in 10.0 mi ESE 8.1 mph - N/A   Clear
6:05 AM 50.0 °F - 41.0 °F 71% 30.07 in 10.0 mi SSE 3.5 mph - N/A   Clear
6:25 AM 48.2 °F - 42.8 °F 82% 30.08 in 10.0 mi SSW 5.8 mph - N/A   Clear
6:45 AM 48.2 °F - 41.0 °F 76% 30.09 in 10.0 mi SSE 6.9 mph - N/A   Clear
7:05 AM 46.4 °F 42.9 °F 41.0 °F 81% 30.09 in 8.0 mi SSE 6.9 mph - N/A   Clear
7:25 AM 48.2 °F - 41.0 °F 76% 30.10 in 9.0 mi ESE 3.5 mph - N/A   Clear
7:45 AM 50.0 °F - 42.8 °F 76% 30.11 in 8.0 mi SE 3.5 mph - N/A   Clear
8:05 AM 51.8 °F - 44.6 °F 76% 30.11 in 9.0 mi ESE 5.8 mph - N/A   Clear
8:25 AM 53.6 °F - 44.6 °F 72% 30.11 in 8.0 mi ESE 5.8 mph - N/A   Clear
8:45 AM 53.6 °F - 44.6 °F 72% 30.12 in 8.0 mi SE 5.8 mph - N/A   Clear
9:05 AM 55.4 °F - 44.6 °F 67% 30.12 in 8.0 mi SE 6.9 mph - N/A   Clear
9:25 AM 57.2 °F - 42.8 °F 59% 30.12 in 9.0 mi SE 4.6 mph - N/A   Clear
9:45 AM 57.2 °F - 42.8 °F 59% 30.12 in 9.0 mi SE 4.6 mph - N/A   Clear
10:05 AM 59.0 °F - 41.0 °F 51% 30.12 in 9.0 mi SE 6.9 mph - N/A   Clear
10:25 AM 60.8 °F - 41.0 °F 48% 30.12 in 10.0 mi SE 8.1 mph - N/A   Clear
10:45 AM 62.6 °F - 41.0 °F 45% 30.11 in 9.0 mi SE 6.9 mph - N/A   Clear
11:05 AM 62.6 °F - 41.0 °F 45% 30.12 in 9.0 mi South 8.1 mph - N/A   Clear
11:25 AM 64.4 °F - 41.0 °F 42% 30.12 in 10.0 mi SSE 6.9 mph - N/A   Clear
11:45 AM 64.4 °F - 41.0 °F 42% 30.12 in 9.0 mi SSE 4.6 mph - N/A   Clear
12:05 PM 64.4 °F - 41.0 °F 42% 30.12 in 10.0 mi SE 5.8 mph - N/A   Clear
12:25 PM 66.2 °F - 41.0 °F 40% 30.11 in 9.0 mi South 9.2 mph - N/A   Clear
12:45 PM 66.2 °F - 41.0 °F 40% 30.11 in 9.0 mi SE 3.5 mph - N/A   Clear
1:05 PM 68.0 °F - 41.0 °F 37% 30.10 in 9.0 mi South 3.5 mph - N/A   Partly Cloudy
1:25 PM 68.0 °F - 41.0 °F 37% 30.10 in 10.0 mi South 4.6 mph - N/A   Partly Cloudy
1:45 PM 68.0 °F - 41.0 °F 37% 30.10 in 9.0 mi South 5.8 mph - N/A   Scattered Clouds
2:05 PM 68.0 °F - 42.8 °F 40% 30.09 in 10.0 mi South 6.9 mph - N/A   Scattered Clouds
2:25 PM 68.0 °F - 42.8 °F 40% 30.08 in 9.0 mi SSE 5.8 mph - N/A   Partly Cloudy
2:45 PM 68.0 °F - 42.8 °F 40% 30.08 in 10.0 mi South 5.8 mph - N/A   Clear
3:05 PM 68.0 °F - 42.8 °F 40% 30.08 in 10.0 mi South 5.8 mph - N/A   Partly Cloudy
3:25 PM 68.0 °F - 44.6 °F 43% 30.08 in 10.0 mi Calm Calm - N/A Rain Light Rain
3:45 PM 68.0 °F - 44.6 °F 43% 30.09 in 9.0 mi SSW 4.6 mph - N/A   Partly Cloudy
4:05 PM 68.0 °F - 44.6 °F 43% 30.09 in 9.0 mi SW 3.5 mph - N/A   Mostly Cloudy
4:25 PM 68.0 °F - 46.4 °F 46% 30.08 in 9.0 mi West 3.5 mph - N/A   Overcast
4:45 PM 66.2 °F - 46.4 °F 49% 30.08 in 9.0 mi Calm Calm - N/A   Overcast
5:05 PM 66.2 °F - 48.2 °F 52% 30.08 in 10.0 mi NNW 3.5 mph - N/A   Scattered Clouds
5:25 PM 66.2 °F - 50.0 °F 56% 30.09 in 9.0 mi North 4.6 mph - N/A   Partly Cloudy
5:45 PM 64.4 °F - 48.2 °F 56% 30.08 in 9.0 mi NNE 3.5 mph - N/A Rain Light Rain
6:05 PM 66.2 °F - 50.0 °F 56% 30.09 in 9.0 mi Calm Calm - N/A   Clear
6:25 PM 64.4 °F - 50.0 °F 59% 30.08 in 10.0 mi NNE 3.5 mph - N/A   Partly Cloudy
6:45 PM 64.4 °F - 46.4 °F 52% 30.08 in 10.0 mi SW 3.5 mph - N/A Rain Light Rain
7:05 PM 64.4 °F - 46.4 °F 52% 30.09 in 10.0 mi South 10.4 mph - N/A   Scattered Clouds
7:25 PM 62.6 °F - 48.2 °F 59% 30.10 in 10.0 mi SSW 10.4 mph - N/A Rain Light Rain
7:45 PM 62.6 °F - 44.6 °F 52% 30.10 in 10.0 mi SSW 17.3 mph 21.9 mph N/A   Clear
8:05 PM 60.8 °F - 41.0 °F 48% 30.11 in 10.0 mi SW 16.1 mph 21.9 mph N/A   Clear
8:25 PM 57.2 °F - 41.0 °F 55% 30.13 in 6.0 mi SW 15.0 mph - N/A Rain Light Rain
8:45 PM 55.4 °F - 44.6 °F 67% 30.13 in 5.0 mi SW 12.7 mph - N/A Rain Light Rain
9:05 PM 53.6 °F - 44.6 °F 72% 30.14 in 5.0 mi SSW 8.1 mph - N/A Rain Light Rain
9:25 PM 51.8 °F - 46.4 °F 82% 30.14 in 5.0 mi SSE 5.8 mph - N/A Rain Light Rain
9:45 PM 51.8 °F - 48.2 °F 88% 30.15 in 5.0 mi SE 6.9 mph - N/A Rain Light Rain
10:05 PM 51.8 °F - 48.2 °F 88% 30.15 in 4.0 mi SE 6.9 mph - N/A Rain Light Rain
10:25 PM 51.8 °F - 48.2 °F 88% 30.15 in 3.0 mi SE 8.1 mph - N/A Rain Light Rain
10:45 PM 50.0 °F - 48.2 °F 94% 30.15 in 3.0 mi SE 8.1 mph - N/A Rain Light Rain
11:05 PM 50.0 °F - 48.2 °F 94% 30.14 in 4.0 mi SE 10.4 mph - N/A Rain Light Rain
11:25 PM 51.8 °F - 50.0 °F 94% 30.13 in 9.0 mi ESE 9.2 mph - N/A Rain Light Rain
11:45 PM 51.8 °F - 50.0 °F 94% 30.13 in 9.0 mi SE 8.1 mph - N/A   Mostly Cloudy